CW1490 Weather Reports


Display with metric or nautical units.
time (UTC)temp
F
wind
direction
speed
MPH
gust
MPH
rain 1hr
in
rain 24hr
in
rain mn
in
humidity
%
barometer
mb
20171018202833 69 221 3.0 7.0 0.00 0.00 0.00 48 1022.1
20171018201346 69 204 4.0 7.0 0.00 0.00 0.00 46 1022.1
20171018195851 69 230 4.0 8.0 0.00 0.00 0.00 44 1022.1
20171018194320 69 208 6.0 8.0 0.00 0.00 0.00 47 1022.1
20171018192945 70 225 3.0 10.0 0.00 0.00 0.00 50 1022.1
20171018191337 70 239 5.0 9.0 0.00 0.00 0.00 48 1022.2
20171018185823 70 212 5.0 8.0 0.00 0.00 0.00 47 1022.2
20171018184318 69 215 4.0 9.0 0.00 0.00 0.00 47 1022.4
20171018182815 69 198 5.0 8.0 0.00 0.00 0.00 51 1022.5
20171018181322 68 212 5.0 10.0 0.00 0.00 0.00 48 1022.5
20171018175832 67 235 5.0 9.0 0.00 0.00 0.00 53 1022.6
20171018174319 67 230 4.0 10.0 0.00 0.00 0.00 56 1022.7
20171018172810 67 223 5.0 9.0 0.00 0.00 0.00 54 1022.8
20171018171324 66 220 6.0 11.0 0.00 0.00 0.00 55 1023.0
20171018165804 65 214 6.0 9.0 0.00 0.00 0.00 53 1023.1
20171018164313 65 274 2.0 8.0 0.00 0.00 0.00 56 1023.4
20171018162844 63 176 5.0 9.0 0.00 0.00 0.00 59 1023.8
20171018161254 62 206 5.0 10.0 0.00 0.00 0.00 61 1024.0
20171018155759 61 199 3.0 7.0 0.00 0.00 0.00 66 1024.1
20171018154245 60 224 4.0 6.0 0.00 0.00 0.00 66 1024.2
20171018152741 59 197 5.0 7.0 0.00 0.00 0.00 68 1024.4
20171018151240 57 226 3.0 6.0 0.00 0.00 0.00 70 1024.4
20171018145732 56 245 3.0 5.0 0.00 0.00 0.00 71 1024.3
20171018144243 54 193 3.0 5.0 0.00 0.00 0.00 76 1024.6
20171018142943 52 210 1.0 4.0 0.00 0.00 0.00 79 1024.5
20171018141221 50 181 2.0 4.0 0.00 0.00 0.00 80 1024.7
20171018135720 49 166 0.0 3.0 0.00 0.00 0.00 85 1024.7
20171018134211 46 45 0.0 4.0 0.00 0.00 0.00 89 1024.7
20171018132707 44 34 0.0 2.0 0.00 0.00 0.00 91 1024.7
20171018131204 42 41 1.0 3.0 0.00 0.00 0.00 95 1024.6
20171018125718 40 345 0.0 2.0 0.00 0.00 0.00 96 1024.6
20171018124150 39 345 1.0 3.0 0.00 0.00 0.00 96 1024.7
20171018122653 37 217 0.0 0.0 0.00 0.00 0.00 96 1024.5
20171018121153 36 218 1.0 3.0 0.00 0.00 0.00 96 1024.1
20171018115641 35 218 0.0 2.0 0.00 0.00 0.00 96 1023.9
20171018114135 35 218 1.0 3.0 0.00 0.00 0.00 96 1023.8
20171018112638 35 218 0.0 2.0 0.00 0.00 0.00 96 1023.6
20171018111144 35 218 0.0 2.0 0.00 0.00 0.00 96 1023.5
20171018105643 34 218 0.0 2.0 0.00 0.00 0.00 96 1023.2
20171018104126 34 247 0.0 1.0 0.00 0.00 0.00 96 1023.1
20171018102636 34 247 0.0 1.0 0.00 0.00 0.00 95 1022.9
20171018101208 34 247 0.0 2.0 0.00 0.00 0.00 95 1023.0
20171018095626 34 283 0.0 0.0 0.00 0.00 0.00 95 1023.0
20171018094120 34 283 0.0 0.0 0.00 0.00 0.00 95 1022.9
20171018092621 35 283 1.0 2.0 0.00 0.00 0.00 95 1022.6
20171018091119 35 283 0.0 3.0 0.00 0.00 0.00 95 1022.6
20171018085624 35 314 0.0 2.0 0.00 0.00 0.00 95 1022.6
20171018084119 35 341 0.0 2.0 0.00 0.00 0.00 95 1022.5
20171018082613 35 46 0.0 2.0 0.00 0.00 0.00 95 1022.2
20171018081112 35 46 0.0 1.0 0.00 0.00 0.00 95 1022.2
20171018075629 35 43 1.0 3.0 0.00 0.00 0.00 95 1022.2
20171018074113 36 221 2.0 5.0 0.00 0.00 0.00 95 1022.0
20171018072609 36 241 0.0 0.0 0.00 0.00 0.00 95 1022.0
20171018071313 36 241 0.0 4.0 0.00 0.00 0.00 95 1021.9
20171018065610 35 295 1.0 3.0 0.00 0.00 0.00 95 1022.0
20171018064118 35 226 1.0 4.0 0.00 0.00 0.00 94 1022.0
20171018062604 36 288 0.0 0.0 0.00 0.00 0.00 95 1022.2
20171018061102 36 288 0.0 2.0 0.00 0.00 0.00 94 1022.0
20171018055600 36 288 1.0 2.0 0.00 0.00 0.00 94 1022.0
20171018054114 36 289 0.0 2.0 0.00 0.00 0.00 94 1022.1
20171018052606 37 289 0.0 1.0 0.00 0.00 0.00 94 1022.2
20171018051101 36 258 0.0 0.0 0.00 0.00 0.00 93 1022.2
20171018045608 36 258 0.0 0.0 0.00 0.00 0.00 93 1022.2
20171018044057 36 258 0.0 0.0 0.00 0.00 0.00 93 1022.5
20171018042600 36 258 0.0 1.0 0.00 0.00 0.00 93 1022.4
20171018041052 36 258 0.0 2.0 0.00 0.00 0.00 93 1022.4
20171018035551 36 295 0.0 0.0 0.00 0.00 0.00 92 1022.5
20171018034357 37 295 0.0 0.0 0.00 0.00 0.00 92 1022.4
20171018033433 37 295 0.0 0.0 0.00 0.00 0.00 91 1022.4
20171018031344 38 295 0.0 0.0 0.00 0.00 0.00 91 1022.5
20171018025554 37 226 0.0 0.0 0.00 0.00 0.00 91 1022.5
20171018024049 38 226 0.0 0.0 0.00 0.00 0.00 90 1022.6
20171018022549 38 226 0.0 0.0 0.00 0.00 0.00 90 1022.7
20171018021051 38 226 0.0 0.0 0.00 0.00 0.00 90 1022.6
20171018015546 38 226 0.0 0.0 0.00 0.00 0.00 90 1022.6
20171018014051 39 226 0.0 0.0 0.00 0.00 0.00 89 1022.5
20171018012546 39 226 0.0 0.0 0.00 0.00 0.00 88 1022.5
20171018011046 39 226 0.0 0.0 0.00 0.00 0.00 87 1022.5
20171018005546 40 226 0.0 1.0 0.00 0.00 0.00 86 1022.4
20171018004053 40 226 1.0 3.0 0.00 0.00 0.00 86 1022.3
20171018002604 40 226 1.0 4.0 0.00 0.00 0.00 86 1022.2
20171018001046 41 234 1.0 3.0 0.00 0.00 0.00 85 1022.2
20171017235650 42 234 1.0 3.0 0.00 0.00 0.00 84 1022.2
20171017234042 43 234 1.0 4.0 0.00 0.00 0.00 83 1022.1
20171017232548 44 245 2.0 4.0 0.00 0.00 0.00 79 1022.0
20171017231041 44 249 2.0 4.0 0.00 0.00 0.00 79 1021.9
20171017225554 44 208 1.0 4.0 0.00 0.00 0.00 80 1021.6
20171017224041 47 223 2.0 4.0 0.00 0.00 0.00 74 1021.4
20171017222544 49 208 3.0 6.0 0.00 0.00 0.00 63 1021.4
20171017221052 49 233 4.0 8.0 0.00 0.00 0.00 64 1021.2
20171017215547 50 224 2.0 4.0 0.00 0.00 0.00 68 1021.3
20171017214053 52 227 2.0 6.0 0.00 0.00 0.00 64 1021.3
20171017212555 53 214 1.0 3.0 0.00 0.00 0.00 59 1021.1
20171017211036 55 201 0.0 3.0 0.00 0.00 0.00 55 1021.2
20171017205535 56 168 2.0 5.0 0.00 0.00 0.00 48 1021.4
20171017204039 56 214 5.0 7.0 0.00 0.00 0.00 46 1021.2